Search your local weather  

 
Advertise Here

Hazardous Weather Conditions

Air Quality Alert issued June 17 at 2:42PM CDT
Air Quality Alert issued June 18 at 2:54PM CDT

Current Conditions: SAN ANTONIO, TEXAS

Overcast


88.0 F

Last Updated on Jun 18 2021, 5:55 pm CDT
Humidity: 49%
Wind Speed: SE 10.4 mph
Barometer 29.90 in
Dewpoint: 66.2 F
Visibility: 10.00 mi
Precip: --
Heat Index: 91 F
Wind Chill: NA
Current conditions at:

San Antonio Boerne Stage Field, TX (K5C1)

Lat: 29.7239 Lon: -98.6946

Local Radar Image active severe weather and emergency alerts image image weather storm and storm spotter reports image weather observation monitoring service image
Local
Radar
Active
Alerts
Storm Reports Weather
Monitoring

5 Day Forecast for SAN ANTONIO, TEXAS (78201)

Friday

Partly Sunny

High 95 °F
Friday
Night
Mostly Clear

Low 72 °F
Saturday

Mostly Sunny

High 95 °F
Saturday
Night
Partly Cloudy

Low 76 °F
Sunday

Mostly Cloudy

High 96 °F
Sunday
Night
Mostly Cloudy

Low 79 °F
Monday

Partly Sunny

High 99 °F
Monday
Night
Chance of T-storms

Low 77 °F
Tuesday

Chance of T-storms

High 90 °F

Sign-up For Email & Text Message Weather Alert Notification Services


Advertise Here

Observation History for SAN ANTONIO, TEXAS


Time Wind
(mph)
Vis
(mi)
Weather Precip (in) Temperature (F) Relative
Humidity
Wind
Chill
(F)
Heat
Index
(F)
Pressure
Air Dwpt altimeter
(in)
sea level
(mb)
5:55 pm CDT SE 10.4 10.00 Overcast -- 88.0 66.2 49% NA 91 29.90 M
3:55 pm CDT S 6.9 10.00 Mostly Cloudy -- 88.0 64.4 46% NA 90 29.92 M
3:35 pm CDT E 3.5 10.00 Mostly Cloudy -- 88.0 64.4 46% NA 90 29.93 M
2:55 pm CDT SE 8.1 10.00 Partly Cloudy -- 88.0 64.4 46% NA 90 29.94 M
2:35 pm CDT SE 5.8 10.00 Partly Cloudy -- 88.0 64.4 46% NA 90 29.94 M
1:55 pm CDT SE 6.9 10.00 Mostly Cloudy -- 86.0 64.4 49% NA 87 29.95 M
12:55 pm CDT N 0.0 10.00 Mostly Cloudy -- 84.0 66.2 55% NA 86 29.97 M
11:55 am CDT SE 4.6 10.00 Partly Cloudy -- 84.0 68.0 58% NA 87 29.99 M
10:55 am CDT N 3.5 10.00 Partly Cloudy -- 82.0 66.2 58% NA 84 30.00 M
9:55 am CDT SW 4.6 10.00 Partly Cloudy -- 81.0 68.0 66% NA 84 30.01 M
8:55 am CDT W 4.6 10.00 Fair -- 77.0 68.0 74% NA NA 30.01 M
8:35 am CDT N 0.0 10.00 Fair -- 75.0 69.8 83% NA NA 30.01 M
7:55 am CDT N 0.0 10.00 Fair -- 72.0 68.0 88% NA NA 30.00 M
7:35 am CDT N 0.0 10.00 Fair -- 70.0 68.0 94% NA NA 30.00 M
6:55 am CDT N 0.0 10.00 Fair -- 66.0 66.2 100% NA NA 30.00 M
5:35 am CDT N 0.0 10.00 Fair -- 68.0 68.0 100% NA NA 29.98 M
4:55 am CDT N 0.0 10.00 Fair -- 68.0 68.0 100% NA NA 29.99 M
3:55 am CDT N 0.0 10.00 Fair -- 68.0 68.0 100% NA NA 30.00 M
2:55 am CDT N 0.0 10.00 Fair -- 70.0 66.2 88% NA NA 30.00 M
1:55 am CDT N 0.0 10.00 Fair -- 70.0 66.2 88% NA NA 30.00 M
1:35 am CDT N 0.0 10.00 Fair -- 72.0 64.4 78% NA NA 30.01 M
12:55 am CDT N 0.0 10.00 Fair -- 73.0 64.4 74% NA NA 30.01 M
11:55 pm CDT N 0.0 10.00 Fair -- 73.0 64.4 74% NA NA 30.02 M
10:55 pm CDT N 0.0 10.00 Fair -- 72.0 64.4 78% NA NA 30.02 M

Regional Weather Observation

San Antonio, San Antonio International Airport, TX (KSAT)

Partly Cloudy
90.0 F

Castroville Municipal Airport, TX (KCVB)

Fair
93.0 F

San Antonio - Kelly Field, TX (KSKF)

Fair
90.0 F

San Antonio, Stinson Municipal Airport, TX (KSSF)

Fair
93.0 F

Randolph Air Force Base, TX (KRND)

A Few Clouds
89.0 F

New Braunfels Regional Airport, TX (KBAZ)

Fair
92.0 F
Advertise Here

Advertise Here